sat.trackr.live / text

‹ back to catalog

IRIDE FM3

NORAD 66697 · 2025-276AH

PAYLOAD ACTIVE UNKNOWN

§ Identity

Operator
Country
IT
Launch date
2025-11-28
Launch site
AFWTR
Launch vehicle
Mass (kg)
RCS (m²)

External: N2YO · Heavens-Above · Gunter

§ Orbital elements

Epoch: 2026-05-25T04:30:56.668896Z

Period
94.71 min
Inclination
97.4187°
Eccentricity
0.0002958
Mean motion
15.20456059 rev/d
Perigee alt
502.4 km
Apogee alt
506.5 km
Semi-major
6,882.6 km
B*
3.2533e-4
RAAN
219.3099°
Arg perigee
70.1967°
Mean anomaly
289.9587°
Rev number
2,694

§ Raw data

IRIDE FM31 66697U 25276AH  26145.18815589  .00007034  00000+0  32533-3 0  99912 66697  97.4187 219.3099 0002958  70.1967 289.9587 15.20456059 26945

JSON: /api/v1/satellites/66697 · /tle

For live sub-satellite position, see the globe view (requires WebGL).

§ Visibility from observer

Set your observer location to see the next 7 days of passes ≥ 10°. The values pass through the URL so the page stays shareable.

No JS? Fill the form by hand. The geolocation button needs JavaScript.